Miscellaneous Local Product
Issued by NWS Hastings, NE

Home | Current Version | Previous Version | Text Only | Print | Product List | Glossary Off
Versions: 1 2 3 4 5 6 7 8 9 10 11 12 13 14 15 16 17 18 19 20 21 22 23 24 25 26 27 28 29 30 31 32 33 34 35 36 37 38 39 40 41 42 43 44 45 46 47 48 49 50

000
AXUS43 KGID 211202
MISGRI

GID CWA HOURLY WEATHER ROUNDUP
NATIONAL WEATHER SERVICE HASTINGS NE
700 AM CDT MON AUG 21 2017

NOTE: "FAIR" INDICATES FEW OR NO CLOUDS BELOW 12,000 FEET WITH NO
SIGNIFICANT WEATHER AND/OR OBSTRUCTIONS TO VISIBILITY.

...SOUTH CENTRAL NEBRASKA...

CITY           SKY/WX    TMP DP  RH WIND       PRES   REMARKS
GRAND ISLAND   CLOUDY    69  69 100 E5        29.96R
HASTINGS       PTCLDY    73  67  81 S8        29.96S
KEARNEY        CLOUDY    66  64  93 CALM      29.96R
ORD            FOG       70  68  93 E3        29.94R VSB 1/4
YORK           PTCLDY    72  70  94 S7        29.96S
AURORA         PTCLDY    68  68  99 E6        29.96R
LEXINGTON      CLEAR     67  65  94 CALM      29.96S
HOLDREGE       MOCLDY    69  64  84 S6        29.97R
HEBRON         PTCLDY    75  67  74 SW6       29.96S

...NEBRASKA PANHANDLE...

CITY           SKY/WX    TMP DP  RH WIND       PRES   REMARKS
CHADRON        CLEAR     64  62  93 SE7       29.97R
ALLIANCE       CLOUDY    67  67 100 SW6       30.00R
SCOTTSBLUFF    FOG       64  63  96 CALM      30.01S VSB 1/4
SIDNEY         FOG       60  60 100 SW3       30.02F VSB 1/4

...WESTERN AND NORTH CENTRAL NEBRASKA...

CITY           SKY/WX    TMP DP  RH WIND       PRES   REMARKS
VALENTINE      FOG       66  63  90 E8        29.95S VSB 1/4
AINSWORTH      FOG       67  67 100 E10       29.96F VSB 1/2
ONEILL         CLOUDY    69  69 100 E7        29.97S FOG
BROKEN BOW     FOG       70  69  97 NE5       29.96R VSB 1/2
IMPERIAL       CLEAR     60  58  92 S5        29.96S
NORTH PLATTE   FOG       70  70 100 E7        29.95R VSB 1/4
MCCOOK         PTCLDY    69  65  86 SW5       29.96R

...EASTERN NEBRASKA...

CITY           SKY/WX    TMP DP  RH WIND       PRES   REMARKS
NORFOLK        PTCLDY    67  63  87 SE15      29.97R
SO SIOUX CITY  CLOUDY    69  65  86 S12       29.98F
TEKAMAH        MOCLDY    70  62  76 SE17G23   30.00F
COLUMBUS       CLOUDY    69  65  86 SE15G22   29.98S
ALBION         MOCLDY    69  68  98 SE8       29.96S FOG
OMAHA EPPLEY   NOT AVBL
OFFUTT AFB     TSTM      68  65  89 NE5       30.04R
MILLARD        TSTM      69  67  92 SE12G18   30.05R
LINCOLN        CLOUDY    70  65  84 E14       30.01R
NEBRASKA CITY  CLOUDY    69  69 100 E6        30.04R
BEATRICE       CLOUDY    75  71  87 E9        30.00R
FALLS CITY     PTCLDY    73  71  93 E7        30.03R

...NORTHERN KANSAS...

CITY           SKY/WX    TMP DP  RH WIND       PRES   REMARKS
GOODLAND       PTCLDY    64  62  93 S6        30.01R
HILL CITY      CLOUDY    75  63  66 S13G23    29.98R
NORTON         SUNNY     70  59  68 S8        29.97R
PHILLIPSBURG   CLEAR     75  64  69 S10G16    29.97R
SMITH CENTER   PTCLDY    73  64  73 S7        29.99R
HAYS           CLOUDY    75  66  73 S15       30.01R
RUSSELL        CLOUDY    74  64  71 S15G25    30.00R
CONCORDIA      CLOUDY    76  65  68 SW13      29.98R
SALINA         CLOUDY    78  64  61 S17       30.01R
TOPEKA         CLOUDY    76  74  93 SE3       30.03R



USA.gov is the U.S. government's official web portal to all federal, state and local government web resources and services.